sat.trackr.live / text

‹ back to catalog

2025-155H

NORAD 64883 · 2025-155H

PAYLOAD ACTIVE UNKNOWN

§ Identity

Operator
Country
TBD
Launch date
2025-07-25
Launch site
VOSTO
Launch vehicle
Mass (kg)
RCS (m²)

External: N2YO · Heavens-Above · Gunter

§ Orbital elements

Epoch: 2026-09-21T20:57:55.934784Z

Period
94.06 min
Inclination
97.4689°
Eccentricity
0.0007004
Mean motion
15.30987899 rev/d
Perigee alt
468.1 km
Apogee alt
477.7 km
Semi-major
6,851.0 km
B*
2.2542e-4
RAAN
233.8431°
Arg perigee
172.7819°
Mean anomaly
187.3524°
Rev number
9,554

§ Raw data

2025-155H1 64883U 25155H   26264.87356406  .00006675  00000+0  22542-3 0  99972 64883  97.4689 233.8431 0007004 172.7819 187.3524 15.30987899 95546

JSON: /api/v1/satellites/64883 · /tle

For live sub-satellite position, see the globe view (requires WebGL).

§ Visibility from observer

Set your observer location to see the next 7 days of passes ≥ 10°. The values pass through the URL so the page stays shareable.

No JS? Fill the form by hand. The geolocation button needs JavaScript.

§ Radio — SatNOGS DB

ModeDescriptionDownlinkUplink
LoRa LoRa telemetry 437.162 MHz

1 transmitter · refreshed weekly from db.satnogs.org